Temperature
19 19 19 19 19 19 19 19 19 19 18 18 18 18 18 19 19 19 19 19 19 18 18 19 19 19 19 19 19 19 19 18 18 18 18 18 18 18 17 17 17 17 17
19 19 19 19 19 19 19 19 19 19 19 18 18 19 19 19 19 19 19 19 19 18 19 18 19 19 19 19 19 19 19 19 18 18 18 18 18 18 18 18 17 17 17
18 18 18 18 18 18 18 18 18 18 18 18 18 18 18 19 19 19 19 18 18 18 18 18 19 19 19 19 19 19 19 19 19 18 18 18 18 18 18 18 18 17 17
18 18 18 18 18 18 18 18 18 18 18 18 18 18 18 18 18 18 18 19 18 18 18 18 19 19 19 19 19 19 19 19 19 19 18 18 18 18 18 18 18 18 17
18 18 18 17 17 17 17 17 17 17 17 17 17 17 18 18 18 18 18 19 18 18 18 18 18 18 19 19 19 19 19 19 19 19 19 19 18 18 18 18 18 18 18
18 18 17 17 17 17 17 17 17 17 17 17 17 17 17 18 18 18 18 18 18 18 18 18 18 18 18 18 18 19 19 19 19 19 19 19 19 18 18 18 18 18 18
18 18 17 17 17 16 16 16 16 16 16 16 16 17 17 18 18 18 18 18 18 18 18 18 18 18 18 18 18 18 18 18 19 19 19 19 19 19 19 18 18 18 18
18 17 17 17 16 16 16 16 16 16 16 16 16 16 16 17 18 18 18 18 18 18 18 18 18 18 18 18 18 18 18 18 18 18 19 19 19 19 19 18 18 18 18
18 18 17 17 17 16 16 16 16 15 15 16 16 15 16 17 17 18 18 18 18 18 18 18 18 18 18 18 17 17 18 18 18 18 18 18 18 19 18 18 18 18 18
18 17 17 17 17 16 16 16 15 15 15 15 15 15 15 15 15 16 17 18 18 18 18 18 17 17 18 17 17 17 17 17 17 18 18 18 18 18 18 18 18 18 18
18 17 17 17 17 16 16 16 16 16 15 15 15 15 15 15 15 15 16 17 17 17 18 17 17 17 17 17 17 17 17 17 17 17 18 18 18 18 18 18 17 17 17
17 17 17 17 17 16 16 16 16 15 15 15 14 14 14 14 15 15 15 16 16 17 17 17 17 17 17 16 17 17 16 17 17 17 17 17 17 17 17 17 17 17 17
17 17 16 16 16 16 16 15 15 15 15 15 14 14 14 14 14 15 15 15 16 16 17 17 16 16 16 16 16 16 16 16 16 16 16 16 16 17 17 17 17 17 17
16 16 16 16 16 16 15 15 15 15 15 14 14 14 14 14 14 14 15 15 15 15 16 16 16 16 16 16 16 16 16 16 16 16 16 16 16 16 16 17 17 17 17
15 15 15 15 15 15 15 15 15 15 14 14 14 14 14 14 14 14 14 15 15 15 15 15 15 15 15 15 15 15 15 15 15 15 15 15 16 16 16 16 16 17 17
14 14 14 14 14 14 14 14 14 14 14 14 14 14 14 14 14 14 14 14 15 15 15 15 15 15 15 15 14 14 14 14 14 15 15 15 15 15 15 15 16 16 16
14 14 14 14 14 14 14 14 14 14 14 14 14 14 14 14 14 14 14 14 14 15 14 14 14 14 14 14 14 14 14 14 14 14 14 14 14 14 14 15 15 15 15
13 13 13 13 13 13 13 13 13 13 13 13 13 14 13 13 14 14 14 14 14 15 14 14 14 14 14 13 13 13 13 13 13 13 13 13 13 14 14 14 14 14 14
12 12 12 12 12 13 13 13 13 13 13 13 13 13 13 13 13 14 14 14 14 14 14 14 13 13 13 13 13 12 12 12 12 12 12 13 13 13 13 13 13 13 13
10 11 11 11 12 12 12 12 13 13 13 13 13 13 13 13 13 13 13 14 14 14 14 13 13 13 12 12 12 12 12 12 12 12 12 12 12 12 12 12 13 13 13
10 10 10 10 11 11 11 12 12 12 12 12 12 12 12 12 13 13 13 13 13 13 13 13 12 12 12 12 12 12 12 11 11 11 11 11 11 11 11 12 12 12 12
9 9 9 10 10 10 11 11 11 12 12 12 12 12 12 12 12 12 13 13 13 13 13 13 12 12 12 12 12 12 11 11 11 11 11 11 11 11 11 11 11 11 12
9 9 9 9 10 10 10 10 11 11 12 12 12 12 12 12 12 12 12 12 12 12 12 13 12 12 12 12 11 11 11 11 11 11 11 10 10 11 10 10 10 11 11
9 9 9 9 9 9 10 10 10 11 11 11 11 11 11 11 11 11 11 11 11 11 12 12 12 11 11 11 11 11 11 11 11 11 11 11 10 10 10 10 10 10 10
9 9 9 9 9 9 9 10 10 10 10 11 11 11 11 11 11 11 11 11 11 11 11 11 11 11 11 11 11 11 11 11 11 11 11 11 10 10 10 9 9 9 9
8 8 8 9 9 9 9 9 9 10 10 10 10 11 11 11 11 11 11 11 11 10 11 11 11 11 11 11 11 11 11 11 11 11 11 11 11 10 9 9 9 9 9
Wind_Speed
3 3 2 2 4 5 3 4 4 5 6 5 6 7 7 7 8 8 8 17 21 21 21 20 20 20 20 20 21 21 22 23 24 25 27 27 27 26 26 25 24 24 23
1 2 4 4 4 5 5 4 6 5 4 4 6 7 7 8 8 9 8 13 19 21 22 22 21 21 22 22 22 22 22 23 24 25 27 28 28 28 27 27 26 26 25
1 2 4 5 4 5 6 5 6 5 6 6 7 8 8 8 8 7 9 9 12 20 24 23 23 22 23 23 22 22 22 23 24 25 26 28 29 29 29 29 28 27 27
2 2 3 4 3 4 4 5 6 6 6 6 6 7 8 7 9 8 8 9 10 12 18 23 24 23 23 23 22 22 22 22 23 24 26 27 29 29 30 30 29 29 28
3 2 3 4 3 4 4 6 4 4 6 7 7 8 8 9 9 10 9 8 9 11 13 16 23 24 23 23 22 22 22 22 23 23 24 25 27 29 30 30 30 30 29
3 3 4 4 4 4 4 4 6 6 6 7 9 9 7 8 8 9 11 9 9 13 15 16 15 18 23 23 23 23 23 23 23 23 23 24 25 27 29 30 30 30 30
4 3 4 5 5 5 6 7 6 7 6 6 6 7 8 10 11 10 10 10 11 11 12 13 13 13 14 22 24 23 23 23 22 22 22 22 24 26 27 29 30 30 30
3 3 4 4 5 5 7 6 6 5 6 5 5 5 5 6 7 11 10 11 12 10 11 12 10 10 10 9 13 19 21 21 20 19 20 21 22 24 26 28 29 29 29
1 1 2 3 4 5 5 6 6 7 6 6 5 4 4 4 5 4 6 8 9 8 8 7 7 8 10 8 8 12 15 15 15 16 16 17 18 21 23 26 27 28 29
3 2 3 3 3 5 6 6 6 6 7 7 6 5 6 7 6 5 5 5 7 7 7 6 6 5 7 6 7 8 10 9 8 9 11 13 14 17 20 23 25 26 28
4 5 3 1 3 4 5 5 6 7 6 7 7 7 7 7 8 7 8 6 5 4 5 5 5 4 3 3 3 6 7 5 4 4 5 6 9 12 15 18 22 24 25
3 3 2 0 3 4 5 6 6 8 7 8 8 7 7 7 6 7 8 7 6 5 4 3 3 2 2 3 4 7 8 6 4 2 1 1 2 3 6 9 14 18 21
4 1 1 1 3 5 6 6 7 7 8 8 8 8 8 8 8 8 8 8 7 5 3 2 2 2 2 5 7 11 9 8 7 6 5 5 4 4 2 1 5 8 12
6 4 3 4 5 6 7 6 6 8 7 7 9 9 7 8 8 8 7 7 6 5 3 3 2 2 3 5 9 11 9 10 10 10 10 9 9 9 9 7 5 1 2
8 8 7 6 6 6 7 7 7 7 8 8 8 9 8 7 7 7 7 6 6 5 4 3 2 3 4 6 9 9 9 11 12 13 12 13 13 14 14 13 12 11 8
9 9 9 9 8 7 7 7 7 7 8 7 7 8 8 8 7 7 7 6 7 6 4 2 2 4 6 7 10 11 12 14 14 14 15 15 16 16 16 17 17 16 15
9 9 9 9 9 9 8 7 7 8 8 8 8 8 8 8 7 7 6 6 7 6 5 2 3 5 7 9 9 10 11 11 11 15 16 17 17 18 18 19 19 19 18
10 10 10 10 10 10 9 8 8 8 7 8 7 7 8 7 7 6 5 6 6 6 6 6 4 5 7 9 10 10 9 10 11 15 17 18 18 18 19 19 19 19 19
9 10 11 10 10 10 10 9 8 8 7 6 6 6 7 7 6 5 5 5 5 5 6 7 6 5 6 8 9 10 11 9 10 14 16 17 18 19 18 18 18 19 19
9 9 10 10 10 11 11 10 8 7 6 5 4 4 5 5 5 4 3 3 3 5 7 8 8 7 6 7 8 9 9 7 8 10 11 14 17 18 18 17 17 17 16
12 9 9 10 10 10 11 9 7 8 5 4 3 2 2 3 4 3 2 1 3 5 7 8 9 8 7 7 7 6 8 7 7 7 8 7 7 8 10 13 15 15 15
11 10 9 9 10 11 9 8 7 7 5 4 3 1 1 1 2 4 5 4 4 7 9 8 8 9 8 7 5 7 7 8 5 5 6 6 6 7 6 9 11 13 14
11 10 10 9 10 10 10 8 9 7 6 5 3 3 2 2 2 4 7 9 9 9 8 8 10 9 8 7 6 6 5 5 5 6 7 8 7 8 5 9 12 13 13
10 9 10 10 9 10 9 8 8 8 7 5 4 5 4 4 4 5 7 9 9 8 8 8 9 8 8 6 5 7 7 6 5 5 6 7 7 7 7 7 10 12 12
9 9 10 10 10 9 7 8 7 5 5 5 5 6 7 7 7 9 10 11 11 10 13 14 13 13 13 10 7 6 6 7 6 4 3 5 7 7 5 4 6 9 10
9 10 11 10 9 8 6 7 7 4 4 4 5 6 9 10 10 9 9 11 11 9 10 11 10 11 9 8 8 5 3 5 6 4 2 3 6 5 4 4 5 7 6
Wind_Direction
259 296 317 315 295 286 263 246 258 246 242 254 266 264 252 244 247 242 210 190 195 203 210 215 218 222 225 228 227 226 224 223 222 221 220 221 221 221 220 220 219 219 218
320 316 295 285 278 281 285 284 285 283 271 263 263 266 270 270 259 251 229 206 205 209 214 219 222 223 224 225 225 226 225 224 223 222 222 222 222 221 221 221 220 219 218
267 273 272 269 268 281 283 279 276 272 264 254 250 252 256 260 268 269 259 244 222 218 218 220 224 225 225 224 224 225 225 224 224 224 223 222 222 221 221 221 221 220 219
306 277 277 278 294 287 277 270 261 264 265 263 258 255 253 250 251 252 250 248 246 242 229 223 224 225 225 226 224 224 225 225 225 226 225 223 222 221 221 221 221 220 219
341 329 312 299 298 285 279 286 295 283 278 272 265 254 246 247 246 247 245 242 244 249 253 239 227 226 226 228 227 226 226 225 226 227 228 226 224 222 221 221 221 220 219
12 15 310 329 332 303 295 301 304 290 278 273 273 269 256 246 239 237 243 241 237 237 241 244 231 226 226 226 228 228 227 227 227 228 229 228 226 224 222 220 220 220 220
33 355 325 351 324 319 328 315 303 301 293 280 276 277 263 247 239 235 236 238 237 235 236 237 231 225 224 226 228 229 231 231 230 230 230 230 228 226 223 221 220 220 220
21 323 23 334 334 332 307 304 314 302 298 300 292 293 286 267 243 240 230 232 236 235 234 235 227 224 229 223 225 231 234 234 234 232 233 233 231 228 225 223 221 220 219
289 306 317 312 324 309 314 331 308 308 309 303 280 270 281 286 314 276 257 246 237 230 231 233 225 224 226 224 220 219 224 228 234 238 240 238 234 231 228 225 222 220 219
242 238 246 277 307 307 307 310 345 331 310 302 296 274 263 279 288 295 286 269 254 237 232 240 242 225 221 220 211 196 202 209 224 240 249 246 241 235 230 227 225 222 220
232 230 225 253 300 292 305 320 311 303 297 293 295 297 293 282 264 266 280 279 273 254 231 228 238 238 209 196 177 160 164 171 199 233 249 253 248 240 234 231 230 227 224
249 228 224 158 293 293 309 303 295 292 288 289 288 285 281 279 277 270 271 276 271 264 241 216 216 209 163 125 141 134 131 127 128 135 163 209 233 229 229 232 233 233 230
287 315 6 332 285 287 282 279 283 284 284 282 281 277 275 274 275 275 274 275 274 273 258 200 177 160 153 118 117 120 114 119 114 105 95 85 77 74 74 197 227 235 236
314 335 315 282 276 276 283 287 290 285 284 285 283 280 275 271 267 266 265 270 276 267 249 216 154 149 132 115 125 122 114 114 108 99 90 83 77 74 70 66 67 97 224
320 327 320 298 284 279 278 282 282 285 286 284 283 282 278 275 269 262 257 247 243 253 247 211 157 139 123 112 134 120 113 107 103 96 90 84 79 75 71 68 66 68 76
322 314 307 298 288 279 276 275 282 284 290 288 282 279 278 276 272 267 258 246 232 230 238 201 157 144 135 130 126 114 111 104 98 97 92 87 82 77 73 71 69 69 71
317 308 302 297 290 282 275 272 277 282 289 294 294 293 291 284 275 268 260 246 236 224 222 190 147 137 133 125 118 119 116 104 99 97 95 90 85 81 76 73 71 70 71
315 308 299 293 290 286 280 275 277 285 291 297 299 301 301 300 292 278 262 248 235 216 189 165 148 143 133 131 130 126 118 110 106 101 98 94 90 85 81 77 74 72 72
302 306 305 295 291 289 284 277 272 274 281 288 300 304 304 305 299 291 272 250 228 202 169 153 144 133 128 131 126 119 115 115 113 110 100 95 93 89 84 81 78 76 75
284 289 295 298 295 291 284 277 273 271 272 279 291 300 306 310 305 296 276 246 188 163 151 143 136 132 131 132 128 126 126 129 127 120 106 105 100 91 86 84 82 81 80
274 277 285 294 295 290 284 287 278 272 267 271 281 295 329 349 356 339 284 201 158 145 141 140 138 133 133 136 134 135 134 131 122 129 127 124 114 98 88 82 82 85 84
264 266 271 282 288 289 307 311 294 284 278 263 259 233 176 96 62 60 63 84 131 144 144 140 140 142 139 134 127 138 140 139 137 151 136 127 112 98 88 88 94 94 89
267 270 272 276 278 282 279 271 272 274 266 255 232 196 195 149 143 113 92 84 82 99 123 137 136 137 136 139 136 134 141 138 128 145 126 117 110 103 99 105 110 103 97
275 277 277 276 277 282 274 254 263 268 263 250 218 183 163 152 150 132 112 94 81 78 99 113 115 112 118 129 137 137 131 116 105 113 124 125 127 119 116 119 129 119 108
279 276 275 269 271 274 263 244 241 259 256 238 209 180 163 154 143 132 120 109 99 88 83 95 104 107 104 102 112 127 136 130 126 120 110 120 131 129 128 133 151 138 121
275 274 270 267 268 271 252 227 221 239 250 236 201 175 162 149 145 138 132 126 119 116 114 109 107 110 111 104 94 98 128 143 135 117 95 107 141 140 131 146 155 157 140
Height
1526 1527 1527 1527 1527 1527 1527 1526 1526 1526 1526 1527 1527 1528 1529 1528 1528 1529 1530 1530 1530 1532 1533 1533 1533 1534 1535 1537 1538 1540 1542 1544 1546 1547 1549 1551 1553 1555 1557 1558 1560 1562 1564
1523 1523 1523 1523 1523 1523 1522 1522 1522 1522 1522 1522 1522 1523 1523 1524 1524 1525 1525 1525 1525 1527 1528 1529 1530 1530 1530 1532 1534 1536 1538 1540 1541 1543 1545 1547 1548 1550 1552 1554 1556 1558 1560
1520 1520 1519 1519 1519 1518 1518 1517 1517 1517 1517 1517 1517 1517 1517 1518 1519 1520 1520 1521 1520 1521 1522 1523 1524 1525 1526 1527 1529 1531 1533 1535 1536 1538 1540 1542 1544 1546 1547 1549 1551 1553 1555
1517 1516 1516 1516 1515 1514 1514 1513 1513 1512 1512 1511 1511 1511 1511 1512 1512 1513 1514 1514 1514 1516 1516 1517 1518 1519 1521 1522 1523 1525 1527 1529 1531 1533 1535 1536 1538 1540 1542 1544 1546 1548 1550
1515 1514 1513 1513 1512 1511 1510 1509 1509 1508 1507 1506 1506 1505 1505 1505 1506 1506 1506 1507 1508 1509 1510 1511 1512 1513 1514 1516 1518 1519 1521 1523 1525 1527 1529 1531 1533 1535 1537 1539 1541 1543 1545
1512 1511 1511 1510 1509 1507 1507 1506 1505 1504 1503 1502 1501 1500 1500 1499 1499 1499 1499 1500 1501 1502 1502 1503 1505 1506 1508 1510 1512 1513 1515 1517 1519 1521 1523 1525 1527 1529 1531 1533 1535 1537 1540
1509 1508 1508 1507 1506 1505 1504 1502 1501 1500 1499 1498 1497 1495 1494 1493 1493 1492 1492 1493 1493 1494 1496 1496 1498 1499 1501 1503 1505 1507 1509 1511 1512 1514 1516 1518 1520 1522 1524 1526 1529 1531 1534
1507 1506 1505 1504 1503 1501 1500 1499 1498 1496 1495 1495 1494 1492 1490 1489 1487 1487 1487 1486 1487 1488 1489 1490 1492 1493 1495 1496 1498 1500 1502 1504 1506 1507 1509 1511 1513 1515 1517 1519 1522 1525 1527
1504 1503 1502 1501 1499 1498 1497 1496 1495 1493 1492 1492 1491 1491 1489 1485 1484 1483 1483 1483 1482 1483 1484 1485 1486 1487 1489 1491 1492 1494 1496 1497 1499 1501 1502 1504 1505 1507 1509 1512 1515 1518 1520
1502 1501 1499 1498 1497 1495 1494 1493 1492 1490 1489 1487 1487 1487 1486 1485 1484 1480 1479 1479 1479 1479 1480 1480 1482 1483 1484 1486 1487 1488 1489 1491 1493 1494 1495 1496 1498 1500 1502 1504 1507 1510 1513
1499 1498 1497 1496 1494 1492 1491 1489 1488 1486 1485 1484 1483 1482 1481 1480 1480 1479 1476 1475 1475 1475 1475 1476 1477 1478 1479 1480 1480 1482 1484 1485 1487 1488 1489 1490 1491 1493 1495 1497 1500 1503 1506
1497 1496 1494 1492 1491 1489 1488 1486 1484 1482 1481 1480 1478 1477 1476 1476 1475 1474 1473 1471 1471 1471 1471 1472 1472 1473 1475 1475 1476 1477 1478 1480 1481 1482 1483 1484 1485 1486 1488 1490 1492 1495 1498
1494 1493 1491 1489 1487 1486 1484 1482 1480 1479 1477 1475 1473 1472 1471 1471 1470 1470 1469 1467 1467 1467 1467 1468 1468 1469 1470 1471 1472 1473 1474 1476 1477 1478 1479 1480 1480 1481 1483 1485 1487 1489 1492
1490 1489 1487 1485 1483 1482 1480 1479 1476 1474 1473 1471 1469 1467 1466 1465 1464 1464 1464 1463 1462 1462 1462 1463 1464 1465 1466 1467 1468 1470 1471 1472 1474 1475 1476 1476 1477 1478 1479 1481 1482 1484 1486
1484 1484 1482 1481 1479 1477 1476 1474 1472 1471 1469 1466 1464 1462 1461 1459 1459 1458 1458 1458 1459 1458 1458 1459 1460 1461 1463 1464 1465 1467 1468 1470 1471 1473 1474 1474 1475 1476 1477 1478 1479 1480 1482
1478 1477 1477 1476 1474 1473 1471 1470 1468 1466 1464 1462 1459 1457 1455 1454 1452 1452 1451 1452 1452 1453 1453 1454 1456 1457 1459 1461 1463 1464 1466 1468 1470 1471 1472 1473 1474 1474 1475 1476 1476 1477 1479
1473 1471 1470 1469 1468 1467 1466 1465 1463 1461 1460 1457 1455 1453 1451 1449 1447 1446 1445 1445 1446 1447 1448 1450 1453 1455 1457 1459 1461 1463 1465 1467 1469 1470 1471 1472 1473 1474 1474 1475 1475 1476 1477
1466 1465 1464 1463 1462 1461 1460 1459 1458 1456 1455 1453 1451 1448 1446 1444 1442 1441 1440 1439 1440 1441 1443 1446 1449 1451 1454 1457 1459 1462 1464 1466 1468 1470 1471 1472 1473 1474 1475 1475 1476 1477 1478
1459 1458 1457 1456 1455 1454 1453 1453 1452 1451 1449 1448 1446 1444 1442 1440 1438 1436 1435 1435 1435 1437 1439 1442 1445 1449 1452 1455 1458 1461 1464 1466 1468 1470 1472 1473 1474 1475 1476 1476 1477 1478 1479
1452 1451 1450 1449 1448 1447 1447 1446 1446 1445 1444 1443 1441 1440 1438 1436 1434 1433 1432 1431 1431 1433 1436 1439 1443 1447 1451 1454 1457 1460 1463 1466 1469 1471 1473 1474 1475 1476 1477 1478 1478 1479 1480
1446 1444 1443 1442 1441 1441 1441 1440 1439 1439 1438 1438 1437 1436 1434 1433 1431 1430 1429 1429 1429 1431 1433 1436 1440 1445 1449 1453 1456 1460 1463 1467 1470 1473 1474 1476 1477 1478 1479 1480 1481 1481 1482
1440 1439 1437 1436 1435 1435 1434 1433 1433 1433 1433 1433 1432 1432 1431 1430 1429 1428 1427 1427 1428 1430 1432 1435 1439 1443 1447 1452 1456 1460 1463 1466 1470 1474 1475 1477 1479 1480 1481 1482 1483 1483 1483
1435 1434 1432 1431 1430 1428 1427 1427 1427 1427 1427 1428 1428 1428 1428 1427 1427 1426 1426 1426 1427 1430 1432 1435 1438 1442 1446 1451 1455 1460 1463 1467 1469 1473 1476 1478 1480 1481 1483 1484 1484 1484 1484
1430 1428 1427 1426 1424 1422 1422 1421 1420 1421 1422 1423 1424 1424 1425 1425 1425 1425 1425 1426 1427 1429 1432 1435 1438 1443 1448 1452 1456 1460 1464 1468 1471 1474 1477 1479 1481 1483 1484 1485 1486 1486 1486
1423 1421 1420 1419 1418 1417 1416 1415 1415 1415 1416 1418 1419 1421 1422 1423 1424 1425 1425 1426 1428 1430 1434 1437 1441 1445 1449 1454 1457 1461 1465 1468 1471 1475 1478 1479 1481 1483 1485 1487 1488 1488 1488
1416 1415 1414 1413 1412 1411 1411 1410 1410 1410 1411 1413 1416 1417 1419 1421 1423 1424 1425 1426 1428 1431 1435 1439 1443 1447 1451 1455 1459 1462 1465 1468 1471 1475 1478 1480 1482 1484 1486 1488 1489 1489 1489